Dewpoint
4 2 1 5 6 5 1 -1 7 3 7 5 4 3 3 2 1 0 -0 -1 -1 -1 -1 -1 1 1 1 3 6 8 9 10 10 10 10 9 9 9 8 8 9 9 9 9
5 1 3 1 -3 -3 -4 -2 -0 5 7 4 3 3 2 1 0 -1 -1 -2 -2 -1 -1 -0 -0 1 0 0 2 4 6 8 9 9 9 8 8 10 10 10 10 10 9 10
-1 -5 -3 1 -3 -1 -0 -1 2 6 5 3 2 0 -0 -0 -1 -2 -2 -2 -2 -2 -2 -1 -0 -1 1 -0 0 1 3 4 6 7 8 9 9 9 9 9 9 10 10 10
-2 -3 5 0 -1 1 1 0 -1 -1 2 1 -0 -2 -2 -3 -3 -3 -2 -2 -3 -2 -2 -2 -1 -0 -0 1 0 0 1 1 2 3 5 6 8 8 8 8 8 8 8 8
2 1 1 1 0 1 4 4 0 0 0 1 -1 -1 -3 -3 -3 -3 -3 -4 -4 -4 -4 -3 -2 -1 -0 -0 0 0 0 0 1 1 2 2 2 3 3 5 7 8 7 7
0 -1 5 2 -1 -2 -2 4 1 -1 -1 1 1 4 -2 -4 -4 -4 -4 -5 -5 -5 -5 -4 -4 -3 -1 -1 -1 -1 -1 -1 -0 0 1 1 0 0 0 1 0 1 2 3
1 1 2 -1 -2 -2 3 2 1 -1 -2 -2 -2 -3 -4 -4 -4 -4 -4 -6 -5 -5 -5 -6 -5 -4 -3 -4 -3 -4 -3 -1 -1 -0 0 0 0 -1 -1 0 0 -0 -0 -0
2 3 3 -2 -2 0 -0 -1 -1 -0 -1 -2 -3 -4 -5 -5 -5 -5 -4 -6 -6 -6 -6 -6 -6 -6 -5 -5 -5 -4 -3 -2 -3 -2 -1 -2 -1 -2 -3 -2 -1 -1 -0 -1
1 1 -0 -2 -1 -2 -1 -2 -2 -2 -2 -2 -3 -4 -5 -6 -6 -7 -7 -7 -7 -7 -6 -7 -7 -6 -6 -6 -6 -6 -5 -4 -3 -3 -3 -3 -3 -4 -4 -3 -2 -3 -3 -4
1 -1 -2 -2 -2 -2 -2 -2 -2 -3 -3 -2 -3 -4 -5 -6 -7 -7 -7 -7 -7 -7 -7 -8 -8 -7 -7 -6 -6 -6 -6 -6 -5 -4 -4 -4 -5 -5 -4 -5 -5 -6 -6 -6
-0 -2 -2 -3 -3 -3 -3 -3 -4 -4 -5 -5 -5 -6 -6 -7 -7 -7 -7 -7 -7 -7 -8 -9 -9 -8 -7 -7 -6 -7 -7 -7 -7 -8 -7 -6 -6 -6 -6 -7 -6 -6 -6 -6
-0 -1 -2 -2 -3 -3 -5 -5 -6 -6 -6 -7 -6 -6 -7 -7 -8 -8 -8 -8 -8 -9 -9 -10 -9 -8 -7 -7 -7 -8 -8 -8 -8 -8 -8 -8 -8 -8 -8 -8 -7 -7 -7 -7
-1 -2 -3 -4 -3 -4 -6 -7 -8 -7 -7 -7 -7 -7 -7 -8 -8 -9 -9 -9 -9 -10 -10 -10 -9 -9 -8 -8 -8 -8 -8 -9 -9 -8 -8 -8 -9 -9 -9 -9 -8 -8 -8 -8
-2 -2 -2 -3 -5 -6 -7 -7 -8 -8 -8 -8 -8 -9 -9 -10 -10 -10 -10 -11 -11 -11 -10 -10 -10 -9 -9 -9 -9 -9 -9 -9 -9 -9 -9 -10 -10 -10 -10 -10 -10 -10 -10 -10
-4 -4 -5 -6 -6 -7 -7 -8 -8 -9 -9 -9 -9 -9 -10 -11 -11 -11 -11 -11 -11 -12 -12 -11 -10 -10 -10 -10 -10 -10 -9 -10 -10 -10 -10 -10 -10 -10 -10 -11 -11 -11 -11 -11
-5 -6 -6 -6 -7 -7 -7 -7 -8 -8 -9 -10 -10 -11 -11 -12 -12 -12 -11 -12 -12 -13 -13 -15 -15 -15 -11 -11 -11 -11 -11 -11 -11 -11 -11 -11 -11 -11 -11 -12 -12 -13 -15 -13
-5 -5 -6 -7 -8 -8 -8 -9 -9 -10 -11 -11 -12 -12 -12 -12 -12 -12 -12 -12 -13 -16 -17 -21 -22 -24 -23 -15 -13 -12 -12 -12 -12 -12 -12 -12 -12 -12 -12 -13 -14 -17 -27 -21
-7 -7 -7 -7 -7 -8 -9 -9 -10 -11 -11 -12 -12 -12 -12 -12 -12 -13 -14 -17 -15 -14 -19 -27 -27 -25 -27 -22 -15 -12 -12 -12 -13 -13 -14 -13 -13 -13 -13 -14 -14 -15 -15 -18
-8 -9 -9 -9 -9 -9 -10 -11 -11 -12 -12 -13 -13 -13 -13 -14 -17 -20 -21 -20 -17 -15 -23 -28 -21 -18 -24 -22 -15 -13 -13 -13 -13 -13 -13 -13 -14 -14 -14 -14 -15 -15 -16 -16
-9 -9 -10 -10 -10 -11 -12 -12 -12 -13 -13 -13 -13 -16 -18 -20 -21 -23 -18 -15 -15 -16 -26 -27 -27 -17 -19 -22 -16 -14 -14 -14 -14 -15 -15 -14 -15 -15 -15 -17 -16 -16 -16 -17
-11 -12 -12 -12 -13 -13 -13 -13 -13 -14 -14 -15 -16 -18 -20 -19 -19 -20 -18 -13 -14 -17 -21 -16 -18 -26 -25 -22 -16 -15 -15 -15 -15 -15 -15 -15 -16 -16 -16 -16 -16 -17 -17 -17
-12 -13 -13 -13 -13 -13 -13 -13 -14 -14 -16 -17 -17 -17 -16 -13 -13 -14 -14 -15 -15 -16 -19 -16 -18 -27 -29 -20 -16 -16 -16 -16 -16 -16 -16 -16 -16 -16 -17 -17 -17 -18 -18 -18
-12 -12 -13 -13 -12 -13 -14 -14 -14 -15 -15 -15 -15 -16 -16 -15 -14 -15 -14 -15 -16 -18 -19 -18 -19 -25 -26 -21 -17 -17 -17 -17 -17 -17 -17 -18 -18 -18 -18 -18 -18 -19 -19 -19
-11 -12 -12 -12 -13 -13 -12 -13 -14 -14 -15 -16 -15 -16 -17 -16 -15 -14 -15 -16 -17 -19 -20 -18 -19 -24 -22 -18 -18 -18 -18 -18 -18 -18 -18 -19 -19 -19 -19 -19 -20 -20 -20 -20
-12 -12 -12 -13 -11 -11 -12 -12 -12 -12 -12 -13 -13 -13 -15 -15 -16 -16 -17 -17 -17 -18 -18 -18 -18 -20 -19 -19 -19 -19 -19 -19 -19 -20 -19 -19 -19 -19 -20 -20 -20 -21 -21 -22
-11 -10 -11 -12 -12 -12 -13 -13 -13 -13 -13 -12 -12 -13 -13 -15 -16 -17 -17 -17 -17 -18 -19 -18 -18 -19 -20 -19 -19 -19 -19 -20 -19 -20 -20 -20 -20 -20 -20 -20 -21 -21 -21 -21
-12 -13 -11 -12 -12 -13 -13 -14 -15 -13 -14 -15 -15 -15 -14 -15 -16 -16 -17 -18 -18 -18 -18 -18 -19 -18 -19 -19 -20 -20 -20 -20 -20 -20 -20 -21 -21 -20 -21 -21 -21 -22 -21 -22
Wind_Speed
8 13 10 7 12 5 10 8 3 9 12 14 13 12 15 13 15 17 19 21 26 30 33 37 41 31 24 16 9 9 17 24 23 22 23 21 21 18 19 18 17 17 17 14
5 19 16 18 8 10 6 14 14 19 14 16 18 15 17 17 16 16 16 20 26 29 31 34 38 40 33 27 18 12 17 21 24 23 22 23 26 19 22 24 25 22 24 27
9 14 9 13 15 16 20 21 19 14 9 12 12 13 17 15 13 13 15 17 24 26 27 29 30 31 34 33 27 23 18 16 18 20 22 21 24 23 25 25 23 23 27 24
3 4 5 7 19 16 21 20 20 17 16 14 15 16 15 14 12 14 16 19 23 22 23 25 24 25 26 25 29 31 31 26 19 14 16 16 17 20 23 24 25 26 22 23
3 4 12 9 16 14 7 14 20 16 13 8 14 13 15 15 14 15 18 15 16 17 18 19 20 21 22 23 23 27 31 31 27 24 21 18 14 11 14 19 23 25 22 21
2 4 0 7 20 24 14 6 17 16 13 9 3 1 4 13 14 14 15 15 15 15 15 16 19 18 20 22 23 25 26 25 22 22 21 23 23 20 14 17 16 15 14 12
5 4 5 15 23 20 4 5 14 16 16 19 7 7 5 9 12 14 16 15 14 16 18 18 17 17 17 18 23 20 19 18 17 16 19 17 15 14 12 13 13 13 17 16
6 6 4 29 8 7 3 9 11 13 13 14 12 10 10 12 13 18 16 15 16 17 19 19 18 17 20 20 18 18 16 16 15 16 14 14 12 10 7 11 13 8 12 9
5 3 4 12 11 9 8 8 11 11 10 9 10 11 13 16 18 16 14 14 15 16 16 18 19 19 22 22 17 17 18 17 17 15 15 13 11 11 12 12 15 12 12 13
5 6 8 9 10 10 9 9 9 9 10 9 10 10 13 14 13 12 13 14 13 15 17 17 16 13 15 17 18 17 18 21 21 19 16 14 14 15 14 16 13 14 17 17
5 9 11 9 8 8 9 9 9 9 10 10 9 10 10 10 11 11 11 13 14 14 14 15 15 14 11 12 13 12 13 16 19 20 22 19 18 19 18 16 12 13 16 16
2 3 4 5 4 7 10 10 10 9 9 11 11 10 9 11 10 10 12 12 12 13 13 13 14 16 15 10 9 10 13 13 14 14 14 16 18 20 19 15 13 14 16 15
4 6 8 6 4 5 7 8 9 10 10 9 11 11 10 9 10 8 10 10 11 9 9 11 13 13 14 14 13 10 11 10 9 9 8 11 12 12 13 15 14 13 13 13
5 6 5 3 4 4 5 5 6 9 10 10 10 9 6 8 7 9 11 11 9 8 8 8 9 10 12 13 10 10 10 10 9 9 10 10 9 9 9 8 11 13 12 11
4 5 6 4 4 5 5 5 4 7 8 9 9 8 7 7 7 6 5 10 6 8 8 8 8 8 8 11 12 11 7 9 10 10 10 10 9 9 8 6 4 4 5 7
3 4 5 5 5 6 7 7 6 7 6 4 4 6 5 4 5 7 8 6 6 9 10 10 10 9 6 6 9 8 9 8 8 7 7 7 6 6 5 3 3 3 4 7
3 3 2 2 3 5 6 5 5 4 3 2 0 2 3 5 7 7 8 9 10 11 10 9 8 8 6 4 8 8 7 7 6 5 5 5 5 5 5 4 8 7 7 6
6 7 6 6 5 5 6 6 5 2 0 2 4 4 3 3 5 7 8 9 11 13 12 10 8 9 8 5 6 6 3 5 6 5 5 4 5 3 3 3 4 5 7 6
7 7 7 8 7 7 5 2 0 2 4 4 4 5 6 6 7 8 8 7 6 7 11 9 9 11 8 5 6 4 4 2 3 1 6 3 1 3 6 3 2 2 1 2
9 8 6 6 6 2 3 4 4 5 5 5 6 7 7 8 8 8 8 9 9 15 13 10 7 5 9 4 5 4 3 2 5 8 2 1 3 6 6 3 2 1 2 3
5 6 7 7 7 6 6 5 4 4 5 5 5 6 8 9 11 10 7 3 14 15 9 11 14 7 6 2 5 5 3 2 2 2 1 1 2 1 1 1 1 1 1 1
6 7 7 6 5 4 3 2 2 2 3 3 5 5 6 10 12 13 12 7 10 16 5 11 15 11 2 2 3 4 3 3 3 3 3 3 3 2 3 3 2 2 2 2
5 5 4 4 3 2 3 4 4 4 6 6 7 7 6 7 7 8 6 12 11 16 8 14 16 11 2 3 3 3 3 3 3 3 4 3 4 5 5 7 6 3 6 8
4 3 2 2 3 6 6 8 10 10 11 12 9 12 14 5 5 5 10 15 17 18 9 11 16 10 2 3 6 4 2 4 4 4 7 4 4 4 5 7 5 5 7 7
3 1 1 3 3 5 3 5 5 8 11 9 10 15 13 7 13 13 16 15 14 14 9 12 15 11 4 5 8 7 4 5 10 9 6 5 7 7 6 7 9 7 9 10
2 2 2 3 5 4 5 6 8 7 9 9 8 11 11 12 13 15 10 12 14 11 10 9 12 16 13 3 11 8 8 7 7 8 9 8 5 8 8 9 10 7 6 7
2 3 3 4 5 4 6 10 10 8 11 13 14 11 10 10 12 14 13 10 9 11 12 12 12 13 14 15 13 7 9 9 10 12 12 12 11 9 10 11 13 12 12 12
Wind_Direction
334 284 167 160 173 152 81 45 52 56 99 78 73 70 68 61 50 42 35 29 30 31 32 37 33 23 26 41 77 146 165 185 188 193 196 192 191 197 201 203 202 199 199 201
320 107 120 86 59 94 86 42 66 72 81 88 90 79 60 48 43 36 32 25 31 36 36 35 44 34 28 32 40 85 115 143 156 173 183 191 193 187 195 187 190 185 190 194
52 103 74 51 35 70 62 48 45 46 46 97 81 60 45 46 39 30 27 22 24 29 34 38 36 46 36 33 42 52 74 97 118 141 157 176 193 201 195 196 197 184 184 187
146 350 59 74 59 68 65 40 33 42 45 64 87 81 61 47 37 29 24 22 13 14 25 32 39 38 48 41 38 49 57 56 63 91 123 138 164 177 182 195 204 207 205 206
334 126 134 42 24 0 39 42 14 19 30 116 137 106 52 32 34 36 33 24 23 13 17 24 34 38 39 48 49 47 54 54 55 58 61 75 80 111 136 157 174 192 188 188
310 135 211 24 335 332 322 63 8 20 18 16 181 0 43 13 31 37 38 27 28 28 25 31 24 27 38 41 48 49 51 56 54 58 62 64 67 67 71 91 97 105 123 151
359 63 85 348 328 311 337 14 9 32 38 44 67 63 48 24 34 46 43 25 29 31 32 33 33 29 42 41 42 44 54 59 63 61 62 67 78 81 73 76 81 74 88 81
355 26 52 355 19 53 338 29 34 41 55 67 72 63 47 39 45 43 37 31 31 34 32 29 36 43 40 45 38 43 50 59 66 70 75 85 82 82 89 87 81 84 80 80
26 72 59 39 59 48 54 56 45 49 51 69 64 52 52 51 50 45 37 36 34 36 37 32 33 40 47 29 38 43 43 49 53 60 81 85 93 115 100 89 81 86 94 92
169 86 78 59 57 55 55 59 48 46 45 53 54 42 54 49 46 42 37 37 38 39 35 33 33 52 59 53 22 43 46 50 57 62 65 74 84 84 86 89 97 102 95 95
92 124 118 78 56 45 48 46 43 45 46 45 56 56 59 54 48 44 42 40 42 41 39 33 33 45 67 68 61 40 52 54 52 59 62 68 75 76 74 76 87 90 89 95
84 58 85 99 63 51 51 44 39 41 43 47 51 56 64 59 54 51 46 42 41 42 40 35 40 47 56 63 72 75 63 69 73 66 48 58 61 68 70 68 77 89 100 99
119 97 116 113 74 60 48 45 46 48 46 50 48 57 65 67 58 53 51 51 47 42 41 33 41 55 58 55 59 65 74 74 76 86 100 93 71 47 63 66 72 80 90 98
119 131 115 119 77 56 43 41 44 49 50 50 50 42 67 71 66 65 49 30 33 36 38 37 44 55 60 55 47 55 54 64 78 84 81 83 88 96 90 73 65 68 71 76
81 74 80 89 65 42 27 22 41 53 46 49 54 60 52 49 49 47 95 76 10 23 26 33 45 53 62 65 30 36 66 63 47 54 64 69 69 77 73 69 90 108 104 79
96 85 75 63 43 31 33 31 59 58 57 51 46 55 54 48 34 36 40 49 22 23 14 17 23 37 49 59 64 30 30 62 68 68 67 70 77 85 81 35 353 24 80 105
201 153 120 110 64 53 53 52 68 58 59 77 25 105 89 66 359 20 15 15 22 16 9 14 18 29 40 61 66 20 21 16 47 41 66 61 53 55 51 27 354 20 59 98
76 71 66 69 94 103 89 86 91 115 230 32 50 48 37 13 7 7 17 28 26 357 358 8 15 14 28 53 67 43 31 33 13 18 3 120 83 57 81 97 91 25 26 62
79 81 78 75 83 103 118 152 73 63 63 52 41 37 29 20 12 10 11 10 14 322 345 3 14 360 8 57 59 13 3 69 77 97 72 46 253 163 127 86 71 112 40 60
87 94 115 136 142 135 116 91 71 62 53 38 25 16 9 7 1 359 1 345 345 346 331 336 332 344 343 36 63 355 347 35 16 7 145 184 74 31 45 68 136 46 21 7
131 115 96 91 95 89 80 78 62 46 28 10 360 356 353 356 1 356 13 334 316 329 340 358 315 313 328 58 33 325 349 16 354 319 268 19 19 332 291 279 307 234 226 255
104 102 97 90 82 76 70 47 27 343 337 343 348 351 2 2 351 345 331 315 304 316 347 286 309 324 300 209 312 302 278 243 235 226 257 228 209 226 282 271 259 278 299 310
114 108 110 107 83 21 2 359 330 322 328 319 320 329 333 352 322 330 310 297 292 301 297 293 312 315 264 293 291 277 304 313 277 288 277 255 254 236 232 258 242 267 254 256
114 98 93 89 59 30 346 330 344 329 337 345 330 333 336 313 314 312 313 310 315 323 314 326 340 334 267 18 314 307 276 285 286 277 298 333 308 311 287 300 279 262 298 298
170 157 44 48 327 272 307 281 309 281 279 308 279 295 303 293 312 297 295 298 304 320 317 316 329 344 0 333 306 309 291 280 287 289 236 257 277 289 283 273 287 285 281 293
102 265 226 292 289 303 308 309 306 311 316 311 308 320 270 283 313 318 321 309 315 326 338 316 313 315 327 298 293 309 310 303 306 307 294 304 280 279 289 288 291 292 295 283
273 316 270 297 287 274 294 305 322 305 298 297 291 277 303 289 303 306 312 323 313 306 307 310 310 308 306 303 295 291 291 293 288 293 287 281 254 257 272 273 276 272 265 264
Height
1384 1377 1377 1390 1391 1390 1380 1384 1408 1397 1404 1414 1423 1427 1431 1433 1434 1434 1432 1429 1424 1419 1413 1406 1400 1395 1391 1387 1384 1384 1383 1385 1389 1395 1399 1403 1410 1413 1415 1417 1420 1422 1425 1429
1394 1373 1388 1386 1383 1387 1388 1389 1386 1403 1419 1423 1429 1433 1434 1435 1436 1436 1437 1434 1429 1423 1419 1413 1406 1403 1400 1396 1391 1387 1383 1383 1386 1392 1395 1401 1407 1408 1412 1413 1416 1418 1420 1423
1395 1383 1386 1400 1395 1395 1404 1409 1412 1420 1427 1427 1436 1438 1440 1441 1443 1443 1440 1437 1433 1430 1425 1420 1415 1409 1407 1406 1401 1393 1388 1386 1387 1389 1392 1398 1404 1407 1409 1412 1415 1417 1418 1421
1402 1396 1411 1410 1406 1414 1418 1424 1422 1423 1431 1437 1442 1447 1449 1450 1449 1445 1442 1440 1435 1432 1430 1426 1422 1418 1411 1411 1409 1402 1393 1394 1393 1393 1392 1396 1401 1404 1406 1409 1413 1415 1415 1418
1401 1401 1412 1413 1423 1429 1429 1441 1438 1434 1439 1443 1447 1446 1451 1451 1450 1448 1445 1444 1441 1438 1435 1431 1428 1424 1419 1414 1414 1411 1404 1402 1403 1403 1401 1400 1403 1406 1407 1406 1410 1412 1413 1414
1397 1402 1417 1441 1435 1429 1425 1446 1452 1449 1447 1446 1447 1441 1455 1455 1452 1449 1448 1447 1444 1441 1439 1435 1432 1428 1423 1421 1416 1412 1411 1411 1411 1410 1410 1408 1409 1414 1417 1411 1412 1410 1410 1415
1406 1408 1437 1451 1438 1426 1425 1463 1458 1456 1455 1453 1454 1459 1460 1457 1454 1451 1449 1449 1446 1444 1440 1438 1437 1434 1430 1427 1422 1422 1418 1416 1416 1416 1413 1415 1415 1420 1425 1418 1417 1418 1414 1419
1428 1425 1440 1454 1440 1447 1467 1465 1463 1462 1461 1461 1462 1462 1460 1458 1456 1453 1452 1452 1449 1446 1443 1441 1440 1439 1436 1431 1431 1427 1423 1422 1424 1417 1415 1416 1419 1419 1428 1420 1415 1423 1413 1422
1456 1462 1469 1468 1467 1468 1467 1467 1466 1465 1465 1465 1464 1463 1462 1460 1458 1457 1456 1455 1452 1450 1447 1444 1442 1440 1438 1438 1436 1433 1431 1425 1422 1421 1422 1422 1422 1426 1427 1422 1415 1428 1425 1425
1459 1468 1470 1471 1471 1470 1470 1469 1469 1468 1467 1465 1463 1463 1462 1463 1463 1462 1460 1459 1456 1453 1450 1447 1445 1444 1443 1442 1441 1436 1434 1433 1430 1428 1428 1429 1429 1428 1425 1424 1431 1434 1427 1428
1464 1469 1470 1473 1474 1473 1471 1471 1470 1469 1468 1467 1466 1466 1466 1466 1466 1465 1464 1462 1458 1456 1454 1452 1449 1447 1447 1446 1443 1442 1440 1438 1437 1436 1435 1436 1433 1433 1432 1434 1437 1433 1430 1432
1465 1471 1471 1474 1474 1473 1472 1472 1471 1470 1469 1469 1468 1468 1468 1468 1468 1467 1466 1464 1461 1460 1458 1455 1452 1450 1449 1447 1447 1446 1444 1443 1440 1441 1441 1440 1441 1438 1439 1439 1439 1436 1436 1438
1469 1470 1470 1472 1473 1473 1474 1473 1473 1472 1471 1470 1470 1470 1469 1469 1469 1468 1467 1466 1464 1462 1460 1457 1455 1455 1453 1451 1449 1448 1446 1446 1445 1445 1446 1446 1445 1444 1446 1446 1444 1443 1442 1442
1471 1471 1471 1472 1473 1474 1474 1475 1474 1473 1473 1473 1471 1470 1470 1470 1470 1470 1469 1468 1466 1463 1461 1460 1460 1458 1455 1454 1452 1451 1451 1451 1450 1450 1449 1448 1449 1449 1448 1448 1447 1446 1447 1447
1472 1471 1472 1473 1474 1474 1475 1475 1474 1474 1474 1474 1473 1473 1472 1471 1470 1469 1469 1468 1468 1466 1464 1462 1460 1458 1457 1456 1456 1455 1453 1452 1451 1449 1449 1448 1449 1449 1449 1448 1448 1448 1448 1448
1472 1473 1473 1474 1475 1475 1475 1475 1475 1475 1475 1475 1474 1474 1473 1472 1471 1470 1469 1469 1468 1466 1465 1463 1461 1460 1459 1458 1458 1458 1456 1454 1454 1453 1453 1453 1452 1451 1451 1451 1449 1449 1448 1447
1472 1473 1474 1475 1476 1476 1476 1476 1476 1477 1476 1476 1475 1474 1474 1474 1472 1471 1469 1468 1467 1466 1465 1464 1462 1461 1460 1460 1458 1459 1458 1457 1455 1454 1452 1452 1451 1451 1452 1451 1448 1447 1447 1446
1474 1474 1475 1475 1476 1476 1477 1477 1477 1476 1476 1475 1474 1474 1474 1474 1472 1471 1470 1469 1468 1466 1465 1464 1462 1461 1460 1459 1459 1459 1458 1457 1454 1454 1452 1452 1453 1452 1452 1452 1452 1450 1448 1447
1475 1475 1475 1476 1476 1476 1476 1476 1475 1475 1475 1475 1475 1474 1474 1474 1473 1472 1471 1470 1469 1468 1466 1464 1462 1461 1460 1459 1458 1458 1457 1457 1457 1455 1453 1452 1453 1453 1453 1453 1452 1451 1450 1448
1476 1475 1475 1475 1475 1475 1476 1476 1476 1476 1476 1476 1476 1475 1475 1474 1473 1472 1471 1469 1469 1468 1466 1464 1462 1460 1459 1459 1457 1457 1455 1454 1453 1451 1452 1452 1452 1452 1451 1452 1451 1450 1449 1448
1474 1475 1475 1475 1476 1477 1477 1478 1478 1477 1478 1478 1477 1476 1476 1475 1474 1473 1472 1471 1468 1468 1466 1464 1460 1460 1458 1458 1457 1456 1455 1455 1454 1454 1454 1454 1453 1452 1451 1450 1450 1449 1449 1447
1476 1477 1477 1478 1478 1478 1479 1479 1479 1479 1478 1478 1477 1476 1475 1474 1473 1472 1471 1471 1469 1466 1465 1462 1461 1459 1458 1457 1456 1456 1455 1454 1454 1454 1453 1452 1452 1452 1451 1450 1450 1449 1448 1447
1478 1478 1479 1480 1480 1481 1480 1480 1480 1479 1478 1477 1476 1476 1475 1474 1474 1472 1471 1468 1467 1465 1463 1460 1459 1457 1456 1455 1455 1454 1454 1453 1452 1452 1451 1450 1450 1449 1449 1448 1448 1447 1446 1445
1480 1480 1481 1481 1481 1481 1480 1479 1479 1478 1477 1476 1475 1474 1473 1472 1472 1471 1468 1465 1464 1463 1461 1459 1457 1456 1455 1454 1453 1453 1452 1452 1451 1450 1449 1448 1448 1447 1447 1445 1445 1444 1443 1442
1481 1481 1481 1481 1481 1481 1481 1480 1479 1478 1476 1475 1473 1471 1470 1469 1469 1468 1467 1465 1462 1461 1459 1457 1456 1455 1454 1453 1452 1451 1450 1450 1449 1448 1447 1447 1446 1446 1445 1444 1442 1442 1441 1440
1481 1482 1482 1481 1481 1481 1481 1480 1479 1478 1476 1475 1474 1472 1469 1467 1466 1465 1464 1462 1461 1459 1458 1457 1456 1453 1452 1452 1451 1450 1449 1448 1447 1446 1445 1444 1444 1444 1443 1442 1441 1440 1439 1439
1480 1481 1481 1481 1481 1479 1478 1477 1476 1475 1473 1471 1470 1470 1469 1466 1464 1463 1461 1460 1459 1458 1457 1455 1454 1452 1451 1450 1448 1447 1446 1445 1444 1443 1442 1441 1440 1440 1440 1439 1437 1436 1436 1435